User: anonymous   Login
Location: Newark
(51.3318°N, 0.0053°E)
Time: 02:17:44
(UTC+00:00)
Language:

SCOUT G-1 DEB - Orbit

View from above orbital plane
View from above orbital plane
View from above satellite
View from above satellite

Ground track
Ground track

The orbit data is extracted from the following two-line orbital elements,

1 35403U 93041G   22342.31897085  .00029997  00000-0  52925-2 0  9997
2 35403  89.4944 112.2211 0052347 205.4572 154.4065 14.66444933790961
Epoch (UTC): 08 December 2022 07:39:19
Eccentricity: 0.0052347
inclination: 89.4944°
perigee height: 635 km
apogee height: 709 km
right ascension of ascending node: 112.2211°
argument of perigee: 205.4572°
revolutions per day: 14.66444933
mean anomaly at epoch: 154.4065°
orbit number at epoch: 79096

The dashed part of the orbit path shows where the satellite is in the earth's shadow,  

DLR